Northeast Philadelphia, PA

8:33 AM EDT on March 25, 2017 (GMT -0400)
Northeast Philadelphia

Weather History for KPNE - July, 2013

Change the Weather History Date:

Thursday, July 11, 2013

  Actual Average Record
Temperature  
Mean Temperature 80 °F -  
Max Temperature 86 °F 83 °F 91 °F (2005)
Min Temperature 75 °F 63 °F 57 °F (1996)
Cooling Degree Days 16    
Growing Degree Days 30 (Base 50)    
Moisture  
Dew Point 69 °F    
Average Humidity 73    
Maximum Humidity 87    
Minimum Humidity 53    
Precipitation  
Precipitation 0.00 in - - ()
Sea Level Pressure  
Sea Level Pressure 29.88 in    
Wind  
Wind Speed 8 mph (West)    
Max Wind Speed 13 mph    
Max Gust Speed -    
Visibility 10 miles    
Events Rain    
Averages and records for this station are not official NWS values.
T = Trace of Precipitation, MM = Missing Value Source: NWS Daily Summary

Daily Weather History Graph

Daily Weather History Graph

Search for Another Location

Airport or City:

Trip Planner

Search our weather history database for the weather conditions in past years. The results will help you decide how hot, cold, wet, or windy it might be!

Date:

Astronomy

Jul. 11, 2013 Rise Set
Actual Time 5:40 AM EDT 8:30 PM EDT
Civil Twilight 5:08 AM EDT 9:02 PM EDT
Nautical Twilight 4:28 AM EDT 9:42 PM EDT
Astronomical Twilight 3:41 AM EDT 10:28 PM EDT
Moon 8:57 AM EDT (7/11) 10:09 PM EDT (7/11)
Length of Visible Light 15h 53m
Length of Day
14h 49m
Waxing Crescent, 10% of the Moon is Illuminated
Jul 11
Waxing Crescent
Jul 15
First Quarter
Jul 22
Full
Jul 29
Last Quarter
Aug 6
New

Hourly Weather History & Observations

Time (EDT) Temp. Heat Index Dew Point Humidity Pressure Visibility Wind Dir Wind Speed Gust Speed Precip Events Conditions
12:54 AM 80.1 °F 84.5 °F 73.9 °F 81% 29.84 in 10.0 mi SW 10.4 mph - N/A   Clear
1:54 AM 79.0 °F - 70.0 °F 74% 29.86 in 10.0 mi SW 6.9 mph - N/A   Mostly Cloudy
2:54 AM 79.0 °F - 70.0 °F 74% 29.84 in 10.0 mi SW 6.9 mph - N/A   Clear
3:54 AM 78.1 °F - 70.0 °F 76% 29.83 in 10.0 mi SSW 8.1 mph - N/A   Clear
4:54 AM 77.0 °F - 71.1 °F 82% 29.85 in 10.0 mi WSW 9.2 mph - N/A   Scattered Clouds
5:21 AM 77.0 °F - 71.6 °F 83% 29.85 in 10.0 mi SW 8.1 mph - 0.00 in Rain Light Rain
5:54 AM 75.9 °F - 71.1 °F 85% 29.85 in 10.0 mi SW 6.9 mph - 0.00 in Rain Light Rain
6:30 AM 77.0 °F - 71.6 °F 83% 29.86 in 10.0 mi WSW 12.7 mph - 0.00 in   Mostly Cloudy
6:54 AM 77.0 °F - 71.1 °F 82% 29.87 in 10.0 mi West 9.2 mph - 0.00 in   Overcast
7:54 AM 77.0 °F - 71.1 °F 82% 29.89 in 10.0 mi SW 9.2 mph - N/A   Overcast
8:30 AM 77.0 °F - 71.6 °F 83% 29.90 in 7.0 mi WSW 6.9 mph - 0.00 in Rain Light Rain
8:54 AM 75.9 °F - 71.1 °F 85% 29.89 in 9.0 mi WSW 6.9 mph - 0.00 in Rain Light Rain
9:54 AM 75.9 °F - 72.0 °F 87% 29.90 in 9.0 mi West 9.2 mph - 0.00 in Rain Light Rain
10:54 AM 77.0 °F - 71.1 °F 82% 29.91 in 9.0 mi WNW 9.2 mph - 0.00 in   Partly Cloudy
11:54 AM 77.0 °F - 70.0 °F 79% 29.91 in 10.0 mi NNW 6.9 mph - 0.00 in   Clear
12:54 PM 79.0 °F - 69.1 °F 72% 29.91 in 10.0 mi NNW 3.5 mph - N/A   Clear
1:54 PM 82.9 °F 86.5 °F 69.1 °F 63% 29.90 in 10.0 mi Calm Calm - N/A   Clear
2:54 PM 82.9 °F 85.8 °F 68.0 °F 60% 29.88 in 10.0 mi Variable 4.6 mph - N/A   Mostly Cloudy
3:54 PM 82.9 °F 85.8 °F 68.0 °F 60% 29.87 in 10.0 mi NNW 6.9 mph - N/A   Partly Cloudy
4:54 PM 84.9 °F 87.6 °F 66.9 °F 55% 29.87 in 10.0 mi NNW 6.9 mph - N/A   Partly Cloudy
5:54 PM 86.0 °F 88.8 °F 66.9 °F 53% 29.88 in 10.0 mi Variable 4.6 mph - N/A   Mostly Cloudy
6:54 PM 84.0 °F 87.0 °F 68.0 °F 58% 29.89 in 10.0 mi WNW 6.9 mph - N/A   Clear
7:54 PM 82.0 °F 84.5 °F 66.9 °F 60% 29.90 in 10.0 mi NW 4.6 mph - N/A   Clear
8:54 PM 80.1 °F 82.7 °F 68.0 °F 67% 29.90 in 10.0 mi NW 4.6 mph - N/A   Clear
9:54 PM 79.0 °F - 69.1 °F 72% 29.92 in 10.0 mi North 3.5 mph - N/A   Clear
10:54 PM 78.1 °F - 64.9 °F 64% 29.93 in 10.0 mi NE 10.4 mph - N/A   Overcast
11:54 PM 75.9 °F - 64.0 °F 67% 29.93 in 10.0 mi NNE 6.9 mph - N/A   Mostly Cloudy